Theta_e
314 314 315 315 315 315 316 316 316 315 314 314 313 313 312 312 313 313 313 313 314 313 313 313 313 313 307 296 296 305 307 306 304 301 297 296 293 291 287 288 288 286 289 292 293 293 292
313 314 314 315 315 315 315 315 314 314 313 312 312 312 312 312 312 313 313 313 313 313 312 313 312 312 301 289 304 306 303 303 302 299 296 296 293 294 290 288 286 290 289 289 291 291 291
313 314 314 314 314 314 314 314 313 312 312 311 312 312 312 312 312 312 312 312 313 312 311 312 311 308 299 294 304 302 301 300 301 299 295 297 297 293 292 287 291 290 284 287 287 290 289
313 313 313 313 314 314 313 312 312 311 311 312 311 311 312 311 311 311 311 312 312 312 310 311 311 303 292 304 299 300 301 298 299 300 298 298 299 294 291 292 289 285 284 277 284 287 289
312 312 312 312 313 312 312 312 312 311 311 311 311 312 311 312 312 312 311 313 313 311 309 310 303 298 290 306 297 299 299 296 297 298 298 299 295 290 290 284 281 282 276 278 281 288 287
312 312 312 312 312 311 312 312 311 311 311 311 312 311 311 311 312 312 312 313 311 303 303 306 302 288 295 291 296 298 299 298 294 294 293 292 289 284 284 282 273 275 276 279 279 284 285
312 312 312 311 312 311 311 311 311 311 310 310 310 310 310 310 310 310 305 296 291 288 291 287 288 290 292 296 298 295 298 294 292 289 281 287 282 279 282 284 284 283 280 279 282 286 283
312 312 312 311 311 311 311 311 311 310 309 309 309 309 309 309 309 310 299 292 293 294 285 292 293 293 295 295 289 292 296 287 286 280 284 282 278 283 286 286 284 282 279 279 282 285 283
313 312 312 312 311 311 310 310 310 309 308 308 309 309 309 309 309 301 295 294 300 299 284 288 293 291 291 293 288 288 292 289 284 281 282 280 282 286 284 282 281 281 279 279 279 284 285
313 312 312 312 311 311 311 310 309 308 308 308 308 309 309 309 298 296 293 299 301 299 276 284 286 290 291 291 285 293 294 288 285 281 282 281 286 284 282 281 282 276 283 283 281 278 274
313 313 312 313 312 312 311 311 309 309 308 309 308 308 307 308 295 293 297 299 298 293 263 283 284 294 291 286 287 288 293 289 282 282 282 279 282 281 279 281 283 278 284 282 281 278 278
314 313 312 312 312 312 311 310 309 308 308 309 308 307 306 299 297 296 298 297 292 273 264 278 285 282 282 285 286 287 287 289 289 284 284 283 287 284 283 284 285 285 283 282 282 280 271
315 314 313 312 312 312 311 310 308 307 308 308 307 306 302 300 291 297 295 290 273 267 278 274 278 281 280 280 282 282 280 279 277 271 272 277 280 285 286 280 284 282 278 272 269 270 265
315 314 313 313 312 312 311 310 309 306 307 307 307 305 302 298 296 295 291 279 265 267 269 282 280 280 278 279 279 279 277 275 281 278 273 267 268 280 285 280 278 280 277 269 262 263 266
315 314 313 313 313 312 311 310 308 307 307 306 305 297 296 296 296 293 283 270 267 270 279 278 278 271 271 278 277 276 275 275 279 279 270 270 271 282 282 285 285 281 276 283 274 271 272
315 314 313 313 313 313 312 310 308 307 306 305 292 293 294 295 294 290 277 272 269 280 281 279 269 274 266 271 273 275 274 279 279 281 281 275 270 279 282 286 286 283 285 277 276 267 267
314 314 313 313 313 312 312 310 307 306 305 303 293 284 293 294 291 280 268 265 276 283 284 277 272 272 272 273 276 272 274 279 280 280 281 279 275 275 280 277 278 279 277 279 279 278 270
314 314 313 313 313 312 312 310 307 306 304 299 289 276 294 293 277 281 269 270 283 281 285 283 281 278 271 275 271 274 274 277 282 281 276 280 276 271 274 281 284 282 277 277 271 274 276
314 313 313 313 312 312 311 310 308 304 302 293 285 281 292 287 269 265 274 278 280 280 280 281 279 280 274 270 271 273 276 281 282 280 278 280 275 268 271 278 282 276 278 276 276 277 276
313 313 313 313 313 312 311 309 308 304 301 292 283 274 278 281 279 276 272 271 273 282 281 283 282 281 274 268 276 272 276 280 282 282 285 283 277 273 268 272 276 272 274 275 274 269 272
313 313 313 313 312 312 311 309 307 305 301 292 282 274 273 269 271 277 277 277 275 274 282 282 278 273 272 269 272 267 276 279 281 284 281 280 274 276 276 277 277 273 273 273 270 271 270
313 313 312 312 312 312 310 309 307 305 302 290 281 277 274 269 278 278 279 275 278 278 278 276 271 274 272 269 273 273 277 277 276 280 279 281 273 276 274 279 276 272 273 274 272 271 272
313 313 312 312 312 311 310 309 307 305 301 287 285 283 282 279 278 274 276 278 278 279 280 281 279 277 272 274 279 280 281 280 280 278 278 277 276 273 271 277 278 269 271 273 271 272 271
313 313 312 312 312 311 310 308 307 306 300 291 288 285 278 268 273 278 279 279 279 279 278 280 280 273 280 285 282 280 279 280 280 280 281 276 277 275 270 273 265 273 277 276 274 272 272
313 313 312 312 311 310 309 308 308 306 303 292 289 287 279 268 275 280 279 278 278 279 279 279 280 282 284 280 272 268 268 270 272 279 281 283 279 272 272 271 275 275 275 272 272 271 273
313 312 311 311 310 310 309 308 307 306 302 292 289 289 284 275 273 281 277 278 273 271 274 279 283 284 282 277 266 262 267 264 272 274 283 282 280 274 269 267 265 273 275 278 278 270 274
313 312 311 311 310 309 308 307 307 305 303 293 288 288 286 275 278 276 274 275 278 274 272 277 279 278 280 268 265 267 265 266 269 270 272 274 272 267 267 270 273 275 276 278 267 268 274
312 311 310 310 309 309 308 307 306 304 302 293 287 287 285 279 281 279 280 276 278 276 270 276 276 275 271 268 271 272 268 268 269 272 275 274 270 269 266 269 268 277 275 268 272 276 275
312 311 310 310 309 308 308 307 305 303 302 295 286 288 288 281 278 283 283 285 283 282 278 280 278 276 279 267 270 273 266 267 268 269 278 273 276 272 273 273 278 277 274 276 276 274 274
Wind_Speed
4 5 6 7 8 8 8 9 11 10 10 10 9 9 10 11 12 13 16 17 17 17 17 16 14 13 6 4 6 5 4 5 7 6 5 6 6 4 4 9 12 8 8 12 12 12 13
3 4 6 7 6 6 7 9 9 9 9 9 9 10 11 13 15 16 18 19 19 18 19 18 13 9 2 4 5 1 4 3 4 4 5 6 4 7 8 7 7 6 15 16 16 16 13
2 4 6 6 6 6 7 9 8 8 9 9 9 11 12 14 17 18 20 20 19 19 17 14 8 3 4 10 4 6 5 4 5 5 5 5 6 3 7 9 12 9 9 14 15 8 10
1 3 4 4 4 5 5 7 7 7 8 9 10 11 13 15 17 19 22 22 21 18 13 9 3 1 6 6 3 7 5 5 6 5 4 7 8 8 5 7 14 13 7 7 13 10 11
0 2 2 2 2 3 4 5 5 6 7 8 10 11 14 16 17 20 21 22 21 8 8 4 0 3 8 5 4 6 4 5 7 8 6 8 5 7 3 7 10 5 9 9 14 11 15
2 0 1 1 2 2 3 4 4 5 7 9 10 12 15 17 18 19 21 24 5 1 5 6 3 2 4 6 5 11 6 7 8 6 5 3 3 5 3 6 9 5 7 11 14 15 12
4 3 2 1 1 2 2 3 4 5 7 10 11 14 16 16 18 17 13 6 8 7 7 4 8 5 10 8 8 4 12 5 4 2 4 5 6 11 12 17 18 16 19 21 20 20 15
5 4 2 2 3 2 1 2 3 4 7 10 12 14 17 17 18 12 5 6 2 4 10 6 10 8 10 6 8 10 4 3 4 10 8 6 18 19 16 17 21 20 21 21 22 15 11
7 5 3 4 3 2 1 1 2 4 7 10 12 14 17 19 15 5 7 5 2 3 3 8 5 3 6 3 7 10 3 4 5 8 10 11 17 18 18 18 17 17 17 18 21 15 18
8 6 5 5 4 3 2 0 1 3 6 9 13 15 17 20 6 4 3 5 3 1 4 5 4 3 4 5 6 4 2 3 3 10 9 12 10 10 17 20 20 23 21 20 19 15 17
9 7 6 6 4 3 3 2 1 3 6 8 11 14 17 9 2 3 4 6 3 3 6 10 7 0 8 4 11 6 2 4 15 20 4 19 18 22 22 18 14 12 11 16 18 17 12
11 9 8 7 6 5 4 3 1 3 5 7 10 13 14 4 2 0 4 5 3 9 7 8 5 14 13 4 6 6 7 10 10 7 12 19 20 14 8 11 14 15 12 18 13 9 12
13 10 9 8 7 6 6 5 3 2 5 7 9 10 5 1 3 6 4 3 8 8 6 12 8 11 12 8 8 8 14 10 5 9 12 15 6 1 2 11 9 7 6 3 2 5 7
15 12 10 8 8 7 7 6 3 2 5 8 11 8 2 2 4 4 3 7 10 5 6 6 7 13 6 12 7 12 12 7 7 7 10 7 12 4 3 9 9 11 4 2 5 2 6
15 13 11 9 8 8 8 6 4 1 5 8 12 2 1 3 5 3 6 9 8 6 4 10 13 5 7 5 5 11 6 4 5 11 5 8 9 8 11 9 4 3 4 5 3 4 3
17 15 13 10 9 9 8 7 4 2 4 8 2 3 2 6 4 5 8 1 3 2 3 3 2 4 5 8 9 13 6 4 6 11 13 4 12 8 15 2 3 4 8 3 0 3 4
17 16 14 13 12 10 9 8 5 3 4 5 3 4 4 6 4 7 6 6 4 5 4 3 3 5 6 7 7 4 6 12 6 11 14 8 5 12 11 6 8 10 10 6 7 3 2
19 18 16 14 13 12 10 9 6 3 4 5 3 3 4 2 7 3 3 4 4 5 4 5 3 5 5 4 5 4 6 5 12 12 17 4 5 7 17 7 7 8 12 8 5 2 1
20 18 17 15 15 13 12 10 7 3 3 3 2 3 3 5 5 4 5 3 3 3 3 4 3 3 1 4 7 4 6 6 16 19 5 7 3 8 11 4 4 12 18 22 10 6 4
21 20 18 17 16 15 13 11 9 5 3 5 4 3 6 6 1 5 3 3 6 4 5 5 6 4 5 3 5 9 11 10 18 17 7 13 4 5 5 10 11 16 21 26 16 6 5
22 21 20 19 18 16 15 13 11 7 5 5 3 2 5 2 5 2 4 2 3 5 3 2 4 2 1 5 10 5 6 17 6 6 9 5 4 6 13 13 3 21 21 25 22 18 9
24 22 21 20 19 18 16 14 13 9 7 5 4 5 3 2 1 3 1 3 3 4 3 5 3 7 5 5 8 20 14 11 7 7 14 2 5 6 3 11 7 19 24 19 19 20 10
25 24 23 22 21 19 18 16 14 12 5 3 0 2 5 2 1 4 3 3 5 4 4 5 5 7 4 8 7 15 16 15 16 16 6 4 4 5 5 8 1 7 23 12 18 22 11
28 26 25 23 22 21 19 18 15 13 7 4 3 4 5 3 3 4 2 2 6 3 4 5 4 1 7 14 15 5 3 7 7 11 7 7 8 1 5 5 8 5 17 9 7 25 25
29 27 26 25 24 22 20 19 16 12 8 4 2 4 4 1 3 3 4 4 7 6 3 3 2 3 12 8 6 8 7 7 5 5 7 5 5 5 4 4 1 14 21 14 8 15 25
28 28 27 25 24 24 22 20 17 14 10 5 1 2 4 6 5 3 2 2 2 3 6 4 3 6 7 3 6 6 6 4 8 18 4 6 4 5 5 6 9 14 24 21 8 16 24
29 30 29 27 26 24 23 21 19 17 12 5 2 2 5 5 2 3 2 2 1 1 2 4 7 8 5 4 5 5 5 3 6 9 9 9 6 8 8 7 5 15 25 13 11 5 16
29 30 31 30 27 24 24 23 21 18 14 5 1 2 5 4 1 1 2 1 2 3 2 5 3 6 5 7 3 3 2 4 3 4 7 5 6 5 5 7 7 19 10 10 4 4 7
29 31 31 31 29 27 25 24 22 19 14 7 4 2 3 6 3 2 4 4 3 1 1 3 3 2 2 4 4 2 4 4 1 5 6 5 4 2 5 3 3 3 3 4 4 3 6
Wind_Direction
44 29 39 32 19 24 28 32 39 38 36 30 21 8 1 355 351 349 339 331 325 323 317 310 311 319 340 348 257 218 234 314 322 328 312 310 307 307 299 311 316 296 295 300 317 310 294
29 32 36 31 22 24 31 42 43 37 33 19 12 1 356 350 346 341 334 326 320 321 313 304 298 317 273 278 267 198 266 284 286 312 307 314 298 309 273 255 252 301 307 298 295 286 288
19 28 36 27 24 27 38 47 37 31 26 12 5 0 354 346 339 335 328 321 317 321 313 308 289 288 267 254 262 326 312 254 252 251 254 247 276 328 328 310 273 271 302 303 284 282 283
43 29 30 26 30 26 37 48 38 33 14 7 1 353 348 341 336 332 325 315 313 319 302 305 259 300 254 269 306 316 300 281 284 280 232 250 247 248 223 277 291 287 281 263 264 257 257
251 55 18 0 36 30 39 37 37 27 9 2 355 352 346 342 336 329 321 311 309 287 279 260 10 185 278 297 323 311 314 292 281 278 270 276 255 230 256 262 285 228 263 250 284 254 261
232 260 262 286 11 11 31 41 29 24 6 359 356 352 344 342 340 332 326 317 334 13 293 232 265 42 284 314 310 301 276 268 259 264 323 279 218 217 216 207 242 226 227 263 264 276 285
214 234 248 281 304 324 33 25 32 17 6 1 358 351 343 342 342 342 342 14 12 356 34 287 278 258 286 295 290 276 289 302 286 278 248 256 239 236 235 228 240 260 265 268 269 270 273
210 226 238 259 251 268 346 47 31 9 7 5 355 349 339 338 336 348 17 60 93 259 315 278 255 254 264 264 298 277 286 327 340 288 286 277 255 264 264 257 256 269 277 271 276 272 254
212 213 227 249 254 255 242 56 40 2 12 4 351 345 337 333 330 53 97 56 318 314 279 299 231 264 276 299 270 299 31 327 291 281 280 269 269 306 285 285 290 277 272 273 273 303 278
211 210 217 234 225 234 259 170 49 3 8 2 350 345 335 334 46 322 56 348 2 312 44 295 329 304 313 293 291 343 233 213 298 283 293 271 273 287 301 285 273 271 268 265 271 275 270
210 210 214 224 222 221 226 219 222 344 8 357 346 344 335 350 261 43 306 341 293 33 23 297 308 147 325 326 278 339 287 332 286 285 242 261 291 292 287 287 303 275 280 261 262 259 265
206 212 214 215 214 214 212 216 244 340 3 357 341 345 338 24 13 219 328 341 45 41 298 334 315 332 342 297 314 288 335 307 266 302 276 281 298 289 288 307 261 262 277 255 243 243 244
196 207 212 214 211 209 208 210 228 345 357 346 335 337 347 337 295 309 3 64 35 87 341 304 320 343 324 317 316 351 332 341 34 340 330 328 293 204 346 306 287 233 304 305 218 205 232
195 198 205 205 207 208 211 206 232 342 348 337 324 330 296 111 301 343 59 52 54 241 254 325 319 318 330 4 323 346 340 347 37 15 306 343 326 24 278 293 276 290 223 261 244 234 268
196 193 200 196 204 206 209 209 225 323 346 341 325 350 335 303 325 41 70 54 201 224 292 326 320 23 324 348 306 356 321 282 50 42 30 324 279 315 299 311 294 11 173 273 281 218 250
194 186 190 196 197 201 203 203 214 294 344 358 14 8 306 315 3 53 68 216 213 255 290 32 334 43 321 312 343 347 309 295 359 29 10 273 288 290 328 353 268 276 324 315 319 288 281
191 186 186 191 192 195 194 199 203 256 340 19 50 33 268 330 56 46 101 226 280 275 329 187 265 297 253 303 319 297 278 301 28 349 350 291 226 290 329 30 352 4 2 337 289 221 248
191 189 186 188 189 189 193 193 180 237 334 61 54 22 294 26 53 48 101 198 265 281 287 278 238 220 235 313 302 281 268 284 346 332 328 304 290 285 290 305 238 356 342 336 271 237 174
190 189 186 186 185 187 187 187 182 200 69 102 91 252 319 75 80 329 319 308 259 282 289 310 277 192 183 322 325 249 282 276 321 330 311 337 308 308 337 39 51 2 345 344 312 195 318
188 186 186 183 186 185 183 180 176 181 127 86 78 18 334 39 132 130 63 289 302 246 255 248 264 325 1 295 229 279 290 311 325 311 329 346 260 243 262 284 313 352 358 8 11 30 329
190 188 185 184 183 183 181 178 173 181 133 93 49 241 180 318 332 48 108 188 277 326 262 316 314 168 174 300 298 239 253 314 295 324 0 311 286 282 291 263 154 30 8 15 19 2 31
189 188 183 183 183 181 178 177 171 172 126 77 128 135 340 168 257 20 40 272 275 293 267 288 180 283 186 219 211 292 307 326 286 309 328 335 278 321 307 116 72 41 14 22 17 6 5
188 187 184 181 181 179 177 176 172 172 135 109 231 19 103 305 42 70 230 264 269 344 284 239 315 308 286 245 250 266 267 270 264 293 310 293 307 328 308 323 353 26 9 10 25 26 346
185 182 182 181 179 177 175 175 173 173 145 126 186 119 89 266 98 208 270 278 274 259 249 278 321 74 265 313 303 307 262 245 241 271 270 291 309 276 287 339 40 3 14 357 5 25 15
183 181 178 179 178 174 171 175 172 172 168 100 164 115 118 177 171 310 286 267 308 309 297 260 295 275 302 329 7 1 350 16 331 249 299 265 310 322 14 22 301 8 355 343 352 28 12
185 179 173 175 178 173 170 171 166 162 143 94 99 120 107 116 258 186 258 314 299 319 330 290 317 319 2 20 49 44 23 280 336 329 350 356 33 47 352 71 22 342 337 330 271 39 359
181 175 172 171 175 172 168 167 161 157 151 112 110 65 93 106 238 102 165 209 325 30 242 319 336 350 27 25 63 33 329 197 7 342 339 335 354 43 5 67 37 347 335 342 61 308 340
180 176 169 170 171 170 165 164 156 156 147 98 97 27 117 114 147 99 354 103 4 60 94 283 23 352 17 47 53 3 22 285 348 272 336 352 345 360 12 54 18 7 352 55 324 332 335
178 176 169 169 168 164 165 159 151 158 153 117 104 3 58 80 154 97 113 53 76 87 208 356 122 26 41 66 11 31 349 8 286 346 340 35 11 17 44 76 54 345 40 2 15 349 355